Погода в Николаевке

Украина / Запорожская область     47°01′24″N   36°51′23″E
темп.,
°C
ветер,
м/с
пор.,
м/с
влажн.,
%
обл.,
%
осадки,
мм/ч
давл.,
гПа
погр.,
м
15 мая, сб
сб1500:00+15зсз33690 0.0 101230
03:00+15зсз2367100 0.0 101339
06:00+14зсз35671 0.0 101374
09:00+21з23460 0.0 1014495
12:00+24юз34425 0.0 10141342
15:00+24ююз544122 0.0 10141257
18:00+21юз335157 0.0 1013432
21:00+15з226732 0.0 101411
16 мая, вс
вс1600:00+14ссз22640 0.0 101312
03:00+14ссв456510 0.0 101359
06:00+15ссв47775 0.0 1012110
09:00+22всв565488 0.0 1011459
12:00+27всв5647100 0.0 10091353
15:00+29в5647100 0.0 10071777
18:00+24в5964100 0.0 1006469
21:00+19всв4117332 0.0 1005224
17 мая, пн
пн1700:00+17всв4118410 0.0 1004201
03:00+17всв5107858 0.0 1003169
06:00+17в6137015 0.0 1003289
09:00+19ююв7108897 0.0 1004490
12:00+21ююз6773100 0.0 1006595
15:00+21ююз676880 0.0 1007723
18:00+19ююз587311 0.0 1007718
21:00+15ю489585 0.0 1009189
18 мая, вт
вт1800:00+14юз41193100 0.0 1009260
03:00+14ю239699 0.0 100962
06:00+14ю3696100 0.0 1010189
09:00+19ююв45725 0.0 1010528
12:00+21ююз675953 0.0 1010955
15:00+21ююз7959100 0.0 1009929
18:00+19ююз711728 0.0 1010606
21:00+15ююз51193100 0.0 1010297
19 мая, ср
ср1900:00+15ююз51193100 0.4 1010383
03:00+15ююз5119772 1.6 1010523
06:00+15ююз5109639 0.2 1010521
09:00+19юз567151 0.3 1011996
12:00+21юз675298 0.4 10111660
15:00+21ююз6656100 0.6 10111075
18:00+17ююз357280 0.6 1012255
21:00+15ююз1179100 0.6 101311